Flight Track Log - Related Links

Times and Time Zones

All times are in EDT time to prevent confusion due to time zone crossing. See the N114WE flight status page for this flight to view local times or setup timezone preferences in your user account.

Time Position Orientation Groundspeed Altitude Reporting Facility
EDT Latitude Longitude Course Direction KTS MPH feet Rate Location/Type
03:43PM 34.9261 -99.0647 141° Southeast 102 117 3,600  Level Fort Worth Center
03:44PM 34.9178 -99.0569 143° Southeast 160 184 3,800 822 Climbing Fort Worth Center
03:44PM 34.8906 -99.0639 192° South 106 122 4,600 824 Climbing Fort Worth Center
03:45PM 34.8614 -99.0583 171° South 109 125 5,200 688 Climbing Fort Worth Center
03:46PM 34.8492 -99.0431 134° Southeast 115 132 5,700 769 Climbing Fort Worth Center
03:47PM 34.8347 -99.0250 134° Southeast 108 124 6,200 698 Climbing Fort Worth Center
03:47PM 34.8119 -99.0169 164° South 115 132 6,700 578 Climbing Fort Worth Center
03:48PM 34.7911 -99.0089 162° South 116 133 7,000 234 Climbing Fort Worth Center
03:49PM 34.7824 -98.8324 141° Southeast  Level FlightAware Approximate
03:49PM 34.7661 -98.9983 161° South 126 145 7,000  Level Fort Worth Center
03:49PM 34.7350 -98.9853 161° South 146 168 7,000  Level Fort Worth Center
03:50PM 34.7164 -98.9772 160° South 151 174 7,000  Level Fort Worth Center
03:51PM 34.6936 -98.9617 151° Southeast 150 173 7,000  Level Fort Worth Center
03:51PM 34.6583 -98.9483 163° South 148 170 7,000  Level Fort Worth Center
03:52PM 34.6333 -98.9403 165° South 150 173 7,000 316 Level Fort Worth Center
03:53PM 34.6147 -98.9275 151° Southeast 145 167 7,400 632 Climbing Fort Worth Center
03:54PM 34.5836 -98.9142 161° South 138 159 8,000 340 Climbing Fort Worth Center
03:54PM 34.5525 -98.9036 164° South 133 153 8,000  Level Fort Worth Center
03:55PM 34.5319 -98.8781 134° Southeast 151 174 8,000  Level Fort Worth Center
03:56PM 34.5239 -98.8603 119° Southeast 145 167 8,000  Level Fort Worth Center
03:56PM 34.4969 -98.8322 139° Southeast 146 168 8,000  Level Fort Worth Center
03:57PM 34.4825 -98.8142 134° Southeast 146 168 8,000  Level Fort Worth Center
03:57PM 34.4683 -98.7939 130° Southeast 147 169 8,000  Level Fort Worth Center
03:58PM 34.4517 -98.7708 131° Southeast 149 171 8,000  Level Fort Worth Center
03:59PM 34.4353 -98.7481 131° Southeast 145 167 8,000  Level Fort Worth Center
03:59PM 34.4128 -98.7200 134° Southeast 151 174 8,000  Level Fort Worth Center
04:00PM 34.3942 -98.6969 134° Southeast 152 175 8,000  Level Fort Worth Center
04:01PM 34.3819 -98.6767 126° Southeast 145 167 8,000  Level Fort Worth Center
04:01PM 34.3550 -98.6436 135° Southeast 150 173 8,000  Level Fort Worth Center
04:02PM 34.3364 -98.6208 135° Southeast 152 175 8,000  Level Fort Worth Center
04:03PM 34.3078 -98.5825 132° Southeast 152 175 8,000  Level Fort Worth Center
04:04PM 34.2789 -98.5444 133° Southeast 152 175 8,000 246 Level Fort Worth Center
04:05PM 34.2542 -98.5092 130° Southeast 139 160 8,500 455 Climbing Fort Worth Center
04:05PM 34.2542 -98.5092 130° Southeast 134 154 8,500 700 Level Fort Worth Center
04:06PM 34.2292 -98.4786 135° Southeast 112 129 9,200 569 Climbing Fort Worth Center
04:07PM 34.2044 -98.4506 137° Southeast 111 128 9,600 414 Climbing Fort Worth Center
04:08PM 34.1900 -98.4278 127° Southeast 109 125 10,000 436 Climbing Fort Worth Center
04:09PM 34.1714 -98.4050 135° Southeast 102 117 10,400 477 Climbing Fort Worth Center
04:10PM 34.1569 -98.3872 134° Southeast 105 121 10,700 486 Climbing Fort Worth Center
04:10PM 34.1489 -98.3672 116° Southeast 105 121 11,000 135 Climbing Fort Worth Center
04:11PM 34.1303 -98.3494 142° Southeast 115 132 10,900  Descending Fort Worth Center
04:12PM 34.1011 -98.3139 135° Southeast 145 167 11,000 50 Climbing Fort Worth Center
04:13PM 34.0744 -98.2761 130° Southeast 146 168 11,000  Level Fort Worth Center
04:14PM 34.0433 -98.2356 133° Southeast 151 174 11,000  Level Fort Worth Center
04:15PM 34.0164 -98.1978 131° Southeast 151 174 11,000  Level Fort Worth Center
04:16PM 33.9917 -98.1675 135° Southeast 146 168 11,000  Level Fort Worth Center
04:17PM 33.9625 -98.1297 133° Southeast 146 168 11,000  Level Fort Worth Center
04:18PM 33.9336 -98.0894 131° Southeast 146 168 11,000  Level Fort Worth Center
04:19PM 33.9067 -98.0542 133° Southeast 146 168 11,000  Level Fort Worth Center
04:20PM 33.8797 -98.0189 133° Southeast 146 168 11,000 -150 Level Fort Worth Center
04:21PM 33.8528 -97.9861 135° Southeast 146 168 10,700 -400 Descending Fort Worth Center
04:22PM 33.8236 -97.9511 135° Southeast 146 168 10,200 -555 Descending Fort Worth Center
04:23PM 33.7906 -97.9083 133° Southeast 146 168 9,600 -550 Descending Fort Worth Center
04:24PM 33.7656 -97.8733 131° Southeast 146 168 9,100 -600 Descending Fort Worth Center
04:25PM 33.7386 -97.8381 133° Southeast 141 162 8,400 -706 Descending Fort Worth Center
04:26PM 33.7156 -97.8081 133° Southeast 141 162 7,700 -545 Descending Fort Worth Center
04:27PM 33.6867 -97.7731 135° Southeast 141 162 7,300 -347 Descending Fort Worth Center
04:28PM 33.6575 -97.7328 131° Southeast 141 162 7,000 -150 Descending Fort Worth Center
04:29PM 33.6283 -97.6978 135° Southeast 141 162 7,000  Level Fort Worth Center
04:30PM 33.5992 -97.6603 133° Southeast 147 169 7,000  Level Fort Worth Center
04:31PM 33.5742 -97.6278 133° Southeast 147 169 7,000  Level Fort Worth Center
04:32PM 33.5389 -97.5856 135° Southeast 159 183 7,000 -350 Level Fort Worth Center
04:33PM 33.5097 -97.5506 135° Southeast 159 183 6,300 -650 Descending Fort Worth Center
04:34PM 33.4803 -97.5156 135° Southeast 148 170 5,700 -650 Descending Fort Worth Center
04:35PM 33.4553 -97.4781 129° Southeast 143 165 5,000 -350 Descending Fort Worth Center
04:36PM 33.4242 -97.4458 139° Southeast 143 165 5,000  Level Fort Worth Center
04:37PM 33.4136 -97.4036 107° East 143 165 5,000 50 Level Fort Worth Center
04:38PM 33.3992 -97.3489 108° East 149 171 5,100  Climbing Fort Worth Center
04:39PM 33.3886 -97.3039 106° East 154 177 5,000 -100 Descending Fort Worth Center
04:40PM 33.3739 -97.2492 108° East 154 177 4,900  Descending Fort Worth Center
04:41PM 33.3739 -97.2044 90° East 143 165 5,000 -149 Climbing Fort Worth Center
04:42PM 33.3667 -97.1500 99° East 157 181 4,600 -446 Descending Dallas / Fort Worth TRACON
04:43PM 33.3667 -97.1000 90° East 141 162 4,100 -252 Descending Dallas / Fort Worth TRACON
04:44PM 33.3653 -97.0553 92° East 139 160 4,100 -99 Level Fort Worth Center
04:46PM 33.3500 -96.9500 100° East 152 175 3,800 -66 Descending Dallas / Fort Worth TRACON
04:47PM 33.3500 -96.9000 90° East 149 171 3,900 101 Climbing Dallas / Fort Worth TRACON
04:48PM 33.3333 -96.8667 121° Southeast 140 161 4,000 48 Climbing Dallas / Fort Worth TRACON
04:49PM 33.2833 -96.8333 151° Southeast 155 178 4,000 -50 Level Dallas / Fort Worth TRACON
04:50PM 33.2667 -96.8000 121° Southeast 152 175 3,900 -53 Descending Dallas / Fort Worth TRACON
04:51PM 33.2333 -96.7833 157° South 142 163 3,900 95 Level Dallas / Fort Worth TRACON
04:52PM 33.1833 -96.7500 151° Southeast 143 165 4,100 -143 Climbing Dallas / Fort Worth TRACON
04:53PM 33.1500 -96.7333 157° South 135 155 3,600 -526 Descending Dallas / Fort Worth TRACON
04:54PM 33.1333 -96.7167 140° Southeast 126 145 3,100 -263 Descending Dallas / Fort Worth TRACON
04:55PM 33.0833 -96.6833 151° Southeast 155 178 3,100 -50 Level Dallas / Fort Worth TRACON
04:56PM 33.0500 -96.6667 157° South 148 170 3,000 -53 Descending Dallas / Fort Worth TRACON
04:57PM 33.0167 -96.6333 140° Southeast 141 162 3,000  Level Dallas / Fort Worth TRACON
04:58PM 32.9833 -96.6167 157° South 145 167 3,000  Level Dallas / Fort Worth TRACON
04:59PM 32.9500 -96.6000 157° South 142 163 3,000  Level Dallas / Fort Worth TRACON

Login

Don't have an account? Register now (free) for customized features, flight alerts, and more!